Shirley, NY

11:19 AM EDT on April 25, 2018 (GMT -0400)
Brookhaven

Weather History for KHWV - December, 2012

Change the Weather History Date:

Monday, December 10, 2012

  Actual Average (KISP) Record (KISP)
Temperature  
Mean Temperature 56 °F -  
Max Temperature 59 °F 44 °F 61 °F (2015)
Min Temperature 52 °F 29 °F 6 °F (1968)
Degree Days  
Heating Degree Days 10    
Growing Degree Days 6 (Base 50)    
Moisture  
Dew Point 55 °F    
Average Humidity 96    
Maximum Humidity 100    
Minimum Humidity 93    
Precipitation  
Precipitation 1.23 in - - ()
Sea Level Pressure  
Sea Level Pressure 29.73 in    
Wind  
Wind Speed 9 mph (SSW)    
Max Wind Speed 15 mph    
Max Gust Speed 23 mph    
Visibility 2 miles    
Events Fog , Rain    
Averages and records for this station are not official NWS values.
T = Trace of Precipitation, MM = Missing Value Source: NWS Daily Summary

Daily Weather History Graph

Daily Weather History Graph

Search for Another Location

Airport or City:

Astronomy

Dec. 10, 2012 Rise Set
Actual Time 7:05 AM EST 4:23 PM EST
Civil Twilight 6:34 AM EST 4:54 PM EST
Nautical Twilight 5:59 AM EST 5:28 PM EST
Astronomical Twilight 5:26 AM EST 6:02 PM EST
Moon 3:44 AM EST (12/10) 2:11 PM EST (12/10)
Length of Visible Light 10h 20m
Length of Day
9h 18m
Waning Crescent, 10% of the Moon is Illuminated
Dec 10
Waning Crescent
Dec 13
New
Dec 20
First Quarter
Dec 28
Full
Jan 4
Last Quarter

Hourly Weather History & Observations

Time (EST) Temp. Dew Point Humidity Pressure Visibility Wind Dir Wind Speed Gust Speed Precip Events Conditions
12:56 AM 52.0 °F 51.1 °F 97% 29.98 in 7.0 mi Variable 4.6 mph - 0.13 in Rain Light Rain
1:56 AM 55.9 °F 55.0 °F 97% 29.96 in 4.0 mi SSW 11.5 mph - 0.07 in Rain Light Rain
2:12 AM 55.4 °F 53.6 °F 94% 29.95 in 2.0 mi South 8.1 mph - 0.02 in Rain Light Rain
2:27 AM 55.4 °F 53.6 °F 94% 29.95 in 1.8 mi SSW 9.2 mph - 0.02 in Rain Light Rain
2:56 AM 55.0 °F 54.0 °F 96% 29.94 in 0.8 mi SSW 6.9 mph - 0.02 in   Mist
3:38 AM 55.4 °F 53.6 °F 94% 29.91 in 1.5 mi South 9.2 mph - 0.02 in Rain Rain
3:42 AM 55.4 °F 53.6 °F 94% 29.91 in 3.0 mi SSW 8.1 mph - 0.02 in Rain Light Rain
3:56 AM 55.0 °F 54.0 °F 96% 29.91 in 5.0 mi South 5.8 mph - 0.04 in Rain Light Rain
4:56 AM 55.9 °F 55.0 °F 97% 29.87 in 4.0 mi South 10.4 mph - 0.18 in Rain Light Rain
5:56 AM 55.9 °F 55.0 °F 97% 29.86 in 6.0 mi SSW 10.4 mph - 0.11 in Rain Light Rain
6:48 AM 55.4 °F 53.6 °F 94% 29.85 in 2.0 mi SW 11.5 mph - 0.00 in   Overcast
6:56 AM 55.9 °F 54.0 °F 93% 29.85 in 1.5 mi SW 9.2 mph - 0.00 in   Overcast
7:30 AM 55.4 °F 53.6 °F 94% 29.84 in 2.5 mi SSW 11.5 mph 18.4 mph 0.01 in   Overcast
7:47 AM 55.4 °F 55.4 °F 100% 29.84 in 3.0 mi SW 11.5 mph 23.0 mph 0.01 in   Overcast
7:56 AM 55.9 °F 55.0 °F 97% 29.84 in 4.0 mi SW 12.7 mph 19.6 mph 0.01 in   Overcast
8:12 AM 55.4 °F 55.4 °F 100% 29.83 in 2.0 mi SSW 11.5 mph 20.7 mph N/A   Overcast
8:56 AM 57.0 °F 55.9 °F 96% 29.83 in 1.5 mi SSW 9.2 mph 20.7 mph N/A   Overcast
9:17 AM 55.4 °F 55.4 °F 100% 29.83 in 0.5 mi SSW 10.4 mph - N/A Fog Fog
9:52 AM 55.4 °F 55.4 °F 100% 29.81 in 1.8 mi SW 8.1 mph - 0.02 in Rain Light Rain
9:56 AM 55.9 °F 55.0 °F 97% 29.81 in 1.8 mi SSW 10.4 mph - 0.04 in Rain Light Rain
10:11 AM 57.2 °F 55.4 °F 94% 29.80 in 2.5 mi SSW 10.4 mph 19.6 mph 0.08 in Rain Heavy Rain
10:14 AM 57.2 °F 55.4 °F 94% 29.79 in 3.0 mi SW 9.2 mph 19.6 mph 0.09 in Rain Light Rain
10:29 AM 57.2 °F 55.4 °F 94% 29.78 in 1.8 mi SW 8.1 mph - 0.24 in Rain Heavy Rain
10:38 AM 57.2 °F 55.4 °F 94% 29.78 in 3.0 mi SW 9.2 mph - 0.28 in Rain Light Rain
10:56 AM 57.9 °F 55.9 °F 93% 29.76 in 9.0 mi SSW 11.5 mph 17.3 mph 0.28 in Rain Light Rain
11:16 AM 57.2 °F 55.4 °F 94% 29.76 in 5.0 mi SW 9.2 mph - 0.01 in Rain Light Rain
11:26 AM 57.2 °F 55.4 °F 94% 29.74 in 2.5 mi SSW 10.4 mph 21.9 mph 0.05 in Rain Heavy Rain
11:34 AM 59.0 °F 57.2 °F 94% 29.74 in 9.0 mi SW 11.5 mph 18.4 mph 0.06 in Rain Light Rain
11:56 AM 57.9 °F 57.0 °F 97% 29.72 in 3.0 mi SSW 12.7 mph - 0.06 in   Overcast
11:59 AM 57.2 °F 55.4 °F 94% 29.73 in 2.5 mi SW 11.5 mph - 0.00 in Rain Light Rain
12:12 PM 57.2 °F 57.2 °F 100% 29.72 in 3.0 mi SW 9.2 mph - 0.01 in Rain Light Rain
12:26 PM 59.0 °F 57.2 °F 94% 29.70 in 2.5 mi SW 12.7 mph 18.4 mph 0.08 in Rain Light Rain
12:34 PM 59.0 °F 57.2 °F 94% 29.70 in 5.0 mi SW 9.2 mph 18.4 mph 0.08 in Rain Light Rain
12:56 PM 57.9 °F 57.0 °F 97% 29.69 in 2.0 mi SSW 10.4 mph 17.3 mph 0.08 in   Overcast
1:03 PM 57.2 °F 57.2 °F 100% 29.68 in 1.0 mi SSW 15.0 mph 21.9 mph 0.01 in Rain Light Rain
1:10 PM 57.2 °F 57.2 °F 100% 29.68 in 0.8 mi SSW 15.0 mph 21.9 mph 0.01 in Rain Light Rain
1:51 PM 57.2 °F 55.4 °F 94% 29.66 in 0.2 mi SSW 10.4 mph 19.6 mph 0.02 in Fog Fog
1:56 PM 57.0 °F 55.9 °F 96% 29.66 in 0.2 mi SSW 11.5 mph 18.4 mph 0.02 in Fog Fog
2:35 PM 57.2 °F 55.4 °F 94% 29.65 in 0.8 mi SSW 11.5 mph 19.6 mph N/A   Mist
2:43 PM 57.2 °F 55.4 °F 94% 29.65 in 1.0 mi SSW 10.4 mph 18.4 mph N/A   Overcast
2:53 PM 57.2 °F 55.4 °F 94% 29.64 in 0.5 mi SSW 12.7 mph 19.6 mph 0.01 in Fog , Rain Light Rain
2:56 PM 57.0 °F 55.9 °F 96% 29.64 in 0.5 mi SSW 12.7 mph 19.6 mph 0.03 in Fog , Rain Rain
3:04 PM 57.2 °F 55.4 °F 94% 29.64 in 2.5 mi SSW 9.2 mph 19.6 mph 0.01 in Rain Light Rain
3:11 PM 57.2 °F 55.4 °F 94% 29.63 in 5.0 mi SSW 10.4 mph - 0.01 in Rain Light Rain
3:25 PM 57.2 °F 55.4 °F 94% 29.63 in 2.5 mi SSW 6.9 mph 17.3 mph 0.05 in Rain Rain
3:37 PM 57.2 °F 55.4 °F 94% 29.63 in 3.0 mi SSW 6.9 mph - 0.08 in Rain Light Rain
3:56 PM 57.0 °F 55.9 °F 96% 29.62 in 6.0 mi SSW 9.2 mph - 0.10 in Rain Light Rain
4:17 PM 55.4 °F 55.4 °F 100% 29.61 in 1.8 mi South 9.2 mph - 0.00 in Rain Light Rain
4:27 PM 55.4 °F 55.4 °F 100% 29.60 in 3.0 mi SSW 9.2 mph - 0.02 in Rain Light Rain
4:56 PM 55.9 °F 55.0 °F 97% 29.60 in 2.5 mi WSW 9.2 mph - 0.03 in Rain Light Rain
5:13 PM 55.4 °F 53.6 °F 94% 29.60 in 1.2 mi WSW 6.9 mph - 0.01 in Rain Light Rain
5:29 PM 55.4 °F 55.4 °F 100% 29.58 in 0.8 mi SW 6.9 mph - 0.01 in   Mist
5:37 PM 55.4 °F 55.4 °F 100% 29.58 in 1.0 mi SW 8.1 mph - 0.01 in   Mist
5:56 PM 55.9 °F 55.0 °F 97% 29.58 in 0.8 mi SW 9.2 mph - 0.01 in   Mist
6:56 PM 55.0 °F 54.0 °F 96% 29.58 in 0.5 mi WSW 5.8 mph - N/A Fog Fog
7:56 PM 55.0 °F 55.0 °F 100% 29.58 in 0.5 mi SSW 4.6 mph - N/A Fog Fog
8:56 PM 55.0 °F 54.0 °F 96% 29.58 in 1.2 mi SSW 4.6 mph - 0.01 in   Overcast
9:44 PM 53.6 °F 53.6 °F 100% 29.57 in 0.8 mi SSW 6.9 mph - N/A   Mist
9:56 PM 54.0 °F 53.1 °F 97% 29.58 in 0.8 mi SSW 6.9 mph - N/A   Mist
10:56 PM 54.0 °F 53.1 °F 97% 29.58 in 0.8 mi SW 9.2 mph - N/A   Mist
11:05 PM 53.6 °F 53.6 °F 100% 29.58 in 1.2 mi SSW 9.2 mph - 0.00 in Rain Light Rain
11:47 PM 53.6 °F 53.6 °F 100% 29.58 in 3.0 mi WSW 4.6 mph - 0.01 in Rain Light Rain
11:56 PM 55.0 °F 54.0 °F 96% 29.57 in 4.0 mi SW 4.6 mph - 0.01 in Rain Light Rain